リニア彗星

C/1999 K7 ( LINEAR )

English version
Home page
Updated on September 27, 1999

---------------------------------------------------------------------

・ プロフィール

発見日 1999年 5月24日
発見光度 18.6等
発見者 Lincoln Laboratory Near-Earth Asteroid Research project

・ 軌道要素

   The following improved orbital elements by Kenji Muraoka, are 
  from 37 observations  1999 May 24  to  July  7, perturbations
  by 9 Planets, Moon and 5 minor planets were taken into account.
   The mean residual is +/- 0.86 arc seconds.

      Epoch  =  1999 Mar.  3.0  TT       JDT = 2451240.5
          T  =  1999 Feb. 24.77251       +/- 0.05661 (m.e.) TT
       Peri. =  104.65845                +/- 0.01277
       Node  =   50.33106                +/- 0.01347   (2000.0)
       Incl. =  135.15845                +/- 0.00832
          q  =    2.3227208              +/- 0.0003174 AU
          e  =    0.9965111              +/- 0.0007391
        1/a  =   +0.0015021              +/- 0.0003182 1/AU
        ( P  =  17178 years )
  orig. 1/a  =   +0.001516 
  fut.  1/a  =   +0.001859 

・ 星図

・ 光度変化

        m1 = 13.0 + 5 logΔ + 10.0 log r

---------------------------------------------------------------------

軌道要素は村岡健治氏の計算によるものです。
星図は StellaNavigator Ver.2.0 for Windows (アストロアーツ 編著 / アスキー出版局刊) で作成したものです。
光度グラフはComet for Windowsで作成したものです。

---------------------------------------------------------------------

Copyright(C) Seiichi Yoshida (comet@aerith.net). All rights reserved.